Tracking 31027 objects as of 19-Jul-2025
HD Live streaming from Space Station
objects crossing your sky now

SL-8 R/B

Track SL-8 R/B now!
10-day predictions


NORAD ID: 12836
Int'l Code: 1981-091B
Perigee: 966.3 km
Apogee: 998.8 km
Inclination: 82.9 °
Period: 104.6 minutes
Semi major axis: 7353 km
RCS: 4.3972 m2 (large)
Launch date: September 18, 1981
Source: Commonwealth of Independent States (former USSR) (CIS)
Launch site: PLESETSK MISSILE AND SPACE COMPLEX (PKMTR)

Note: This is a ROCKET BODY
Your satellite tracking list
COSMOS 2251 DEB
Track 1 satellite(s)




NASA's NSSDC Master Catalog

Two Line Element Set (TLE):
1 12836U 81091B   25199.50517337 -.00000004  00000-0 -19482-4 0  9990
2 12836  82.9164  37.6126 0022047 213.2203 208.2145 13.76756594585020
Source of the keplerian elements: AFSPC